Location: Castelbiague
(43.0361°N, 0.9246°E)
Time: 16:10:56
(UTC+00:00)

Cosmos 1900 - Pass Details

Date: 17 June 2021
Orbit: 691 x 731 km, 66.1° (Epoch: 31 July)

Event Time Altitude Azimuth Distance (km) Brightness Sun altitude
Rises 21:35:17 0° 330° (NNW) 3,088 9.5 -16.0°
Reaches altitude 10° 21:37:39 10° 333° (NNW) 2,162 8.2 -16.2°
Maximum altitude 21:42:33 66° 56° (NE) 757 4.4 -16.7°
Enters shadow 21:44:57 29° 130° (SE) 1,253 5.1 -16.9°
